,,,PA_Meas_PMT16A,,PR_Meas_QMR101_102,,RH_Meas_QMH101,,SR_Meas_QMS101,,TA_Meas_QMH101,,GenWind,,GenWind,
date,time,status,PA,status,PR,status,RH,status,SR,status,TA,status,DirAvg,status,SpdAvg,
2009-06-25, 00:00:05,VALID,1011.25,VALID,0,VALID,92.3097,VALID,0.105969,VALID,23.1272,VALID,328,VALID,1.39023,
2009-06-25, 00:01:05,VALID,1011.29,VALID,0,VALID,92.325,VALID,0.105969,VALID,23.1272,VALID,310,VALID,0.519141,
2009-06-25, 00:02:05,VALID,1011.28,VALID,0,VALID,92.3097,VALID,0,VALID,23.1467,VALID,327,VALID,0.330078,
2009-06-25, 00:03:05,VALID,1011.3,VALID,0,VALID,92.3174,VALID,0.105969,VALID,23.1467,VALID,349,VALID,0.834375,
2009-06-25, 00:04:05,VALID,1011.27,VALID,0,VALID,92.3326,VALID,0.105969,VALID,23.106,VALID,336,VALID,0.542969,
2009-06-25, 00:05:05,VALID,1011.28,VALID,0,VALID,92.3097,VALID,0.105969,VALID,23.1467,VALID,322,VALID,1.00508,
2009-06-25, 00:06:05,VALID,1011.28,VALID,0,VALID,92.3097,VALID,0.105969,VALID,23.1467,VALID,25,VALID,1.05938,
2009-06-25, 00:07:05,VALID,1011.28,VALID,0,VALID,92.325,VALID,0.105969,VALID,23.1467,VALID,316,VALID,1.25625,
2009-06-25, 00:08:05,VALID,1011.27,VALID,0,VALID,92.3097,VALID,0,VALID,23.1467,VALID,301,VALID,0.682813,
2009-06-25, 00:09:05,VALID,1011.29,VALID,0,VALID,92.3174,VALID,0.105969,VALID,23.1467,VALID,306,VALID,0.839063,
2009-06-25, 00:10:05,VALID,1011.27,VALID,0,VALID,92.3326,VALID,0.105969,VALID,23.145,VALID,323,VALID,1.13359,
2009-06-25, 00:11:05,VALID,1011.26,VALID,0,VALID,92.325,VALID,0.105969,VALID,23.1644,VALID,312,VALID,0.795703,
2009-06-25, 00:12:05,VALID,1011.24,VALID,0,VALID,92.2945,VALID,0,VALID,23.1644,VALID,319,VALID,0.792578,
2009-06-25, 00:13:05,VALID,1011.26,VALID,0,VALID,92.3326,VALID,0,VALID,23.1857,VALID,306,VALID,1.84609,
2009-06-25, 00:14:05,VALID,1011.24,VALID,0,VALID,92.3174,VALID,0.105969,VALID,23.1857,VALID,332,VALID,1.00625,
2009-06-25, 00:15:05,VALID,1011.25,VALID,0,VALID,92.3326,VALID,0,VALID,23.2051,VALID,307,VALID,0.372656,
2009-06-25, 00:16:05,VALID,1011.21,VALID,0,VALID,92.3097,VALID,0,VALID,23.1857,VALID,290,VALID,0.441406,
2009-06-25, 00:17:05,VALID,1011.22,VALID,0,VALID,92.325,VALID,0,VALID,23.1857,VALID,305,VALID,0.729688,
2009-06-25, 00:18:05,VALID,1011.22,VALID,0,VALID,92.3326,VALID,0,VALID,23.2051,VALID,336,VALID,0.310156,
2009-06-25, 00:19:05,VALID,1011.19,VALID,0,VALID,92.325,VALID,0.105969,VALID,23.2051,VALID,339,VALID,1.1543,
2009-06-25, 00:20:05,VALID,1011.21,VALID,0,VALID,92.3402,VALID,0.105969,VALID,23.1857,VALID,329,VALID,1.11953,
2009-06-25, 00:21:05,VALID,1011.19,VALID,0,VALID,92.3174,VALID,0,VALID,23.1857,VALID,319,VALID,1.36133,
2009-06-25, 00:22:05,VALID,1011.21,VALID,0,VALID,92.325,VALID,0,VALID,23.1662,VALID,318,VALID,2.15391,
2009-06-25, 00:23:05,VALID,1011.22,VALID,0,VALID,92.3479,VALID,0.105969,VALID,23.1857,VALID,299,VALID,1.07891,
2009-06-25, 00:24:05,VALID,1011.2,VALID,0,VALID,92.3326,VALID,0,VALID,23.1662,VALID,302,VALID,1.27578,
2009-06-25, 00:25:05,VALID,1011.19,VALID,0,VALID,92.3402,VALID,0.105969,VALID,23.1662,VALID,298,VALID,1.45508,
2009-06-25, 00:26:05,VALID,1011.18,VALID,0,VALID,92.325,VALID,0,VALID,23.1857,VALID,316,VALID,1.36211,
2009-06-25, 00:27:05,VALID,1011.15,VALID,0,VALID,92.3479,VALID,0,VALID,23.1857,VALID,314,VALID,1.31367,
2009-06-25, 00:28:05,VALID,1011.13,VALID,0,VALID,92.3402,VALID,0.105969,VALID,23.1857,VALID,314,VALID,1.18281,
2009-06-25, 00:29:05,VALID,1011.15,VALID,0,VALID,92.3326,VALID,0.105969,VALID,23.1662,VALID,318,VALID,1.26875,
2009-06-25, 00:30:05,VALID,1011.15,VALID,0,VALID,92.3555,VALID,0,VALID,23.1679,VALID,313,VALID,1.2375,
2009-06-25, 00:31:05,VALID,1011.12,VALID,0,VALID,92.3555,VALID,0,VALID,23.1874,VALID,337,VALID,0.366016,
2009-06-25, 00:32:04,VALID,1011.11,VALID,0,VALID,92.3326,VALID,0,VALID,23.2069,VALID,336,VALID,1.46484,
2009-06-25, 00:33:04,VALID,1011.1,VALID,0,VALID,92.3402,VALID,0,VALID,23.1874,VALID,265,VALID,0.616406,
2009-06-25, 00:34:04,VALID,1011.06,VALID,0,VALID,92.3174,VALID,0,VALID,23.1874,VALID,344,VALID,0.508203,
2009-06-25, 00:35:04,VALID,1011.07,VALID,0,VALID,92.3479,VALID,0,VALID,23.1857,VALID,332,VALID,0.526563,
2009-06-25, 00:36:04,VALID,1011.07,VALID,0,VALID,92.3326,VALID,0,VALID,23.1857,VALID,356,VALID,0.461328,
2009-06-25, 00:37:04,VALID,1011.07,VALID,0,VALID,92.3479,VALID,0,VALID,23.1874,VALID,344,VALID,0.460938,
2009-06-25, 00:38:04,VALID,1011.07,VALID,0,VALID,92.325,VALID,0,VALID,23.1874,VALID,277,VALID,1.25234,
2009-06-25, 00:39:04,VALID,1011.09,VALID,0,VALID,92.3326,VALID,0,VALID,23.1874,VALID,10,VALID,1.87266,
2009-06-25, 00:40:04,VALID,1011.08,VALID,0,VALID,92.3402,VALID,0,VALID,23.1874,VALID,304,VALID,0.249219,
2009-06-25, 00:41:04,VALID,1011.08,VALID,0,VALID,92.3479,VALID,0,VALID,23.1874,VALID,310,VALID,0.532812,
2009-06-25, 00:42:04,VALID,1011.07,VALID,0,VALID,92.3402,VALID,0,VALID,23.1874,VALID,316,VALID,1.15703,
2009-06-25, 00:43:04,VALID,1011.03,VALID,0,VALID,92.3402,VALID,0,VALID,23.1874,VALID,314,VALID,0.784375,
2009-06-25, 00:44:04,VALID,1010.98,VALID,0,VALID,92.3402,VALID,0,VALID,23.1874,VALID,312,VALID,0.217969,
2009-06-25, 00:45:04,VALID,1010.98,VALID,0,VALID,92.3402,VALID,0,VALID,23.1857,VALID,331,VALID,1.17891,
2009-06-25, 00:46:04,VALID,1010.96,VALID,0,VALID,92.3479,VALID,0,VALID,23.1857,VALID,26,VALID,0.522266,
2009-06-25, 00:47:04,VALID,1010.98,VALID,0,VALID,92.3479,VALID,0.105969,VALID,23.1662,VALID,10,VALID,1.17969,
2009-06-25, 00:48:04,VALID,1010.99,VALID,0,VALID,92.3555,VALID,0.105969,VALID,23.1857,VALID,296,VALID,0.495313,
2009-06-25, 00:49:04,VALID,1010.96,VALID,0,VALID,92.3555,VALID,0,VALID,23.1662,VALID,314,VALID,0.653516,
2009-06-25, 00:50:04,VALID,1010.97,VALID,0,VALID,92.3631,VALID,0,VALID,23.1857,VALID,303,VALID,1.04414,
2009-06-25, 00:51:04,VALID,1010.98,VALID,0,VALID,92.3708,VALID,0.105969,VALID,23.1662,VALID,308,VALID,0.463281,
2009-06-25, 00:52:04,VALID,1011.02,VALID,0,VALID,92.3708,VALID,0,VALID,23.1857,VALID,311,VALID,1.30039,
2009-06-25, 00:53:04,VALID,1011,VALID,0,VALID,92.3479,VALID,0,VALID,23.1467,VALID,316,VALID,0.894141,
2009-06-25, 00:54:04,VALID,1011.01,VALID,0,VALID,92.3479,VALID,0.105969,VALID,23.1857,VALID,347,VALID,0.838281,
2009-06-25, 00:55:04,VALID,1011.02,VALID,0,VALID,92.3631,VALID,0,VALID,23.1857,VALID,358,VALID,1.12734,
2009-06-25, 00:56:04,VALID,1011.01,VALID,0,VALID,92.3402,VALID,0,VALID,23.1857,VALID,328,VALID,0.590234,
2009-06-25, 00:57:04,VALID,1010.97,VALID,0,VALID,92.3326,VALID,0.105969,VALID,23.1839,VALID,328,VALID,1.28164,
2009-06-25, 00:58:04,VALID,1010.99,VALID,0,VALID,92.3479,VALID,0,VALID,23.2051,VALID,343,VALID,1.02852,
2009-06-25, 00:59:04,VALID,1010.96,VALID,0,VALID,92.3479,VALID,0,VALID,23.2051,VALID,324,VALID,1.13555,
2009-06-25, 01:00:04,VALID,1010.96,VALID,0,VALID,92.3555,VALID,0,VALID,23.2264,VALID,327,VALID,1.42188,
2009-06-25, 01:01:04,VALID,1010.96,VALID,0,VALID,92.3631,VALID,0,VALID,23.2282,VALID,324,VALID,0.756641,
2009-06-25, 01:02:04,VALID,1010.94,VALID,0,VALID,92.3402,VALID,0,VALID,23.2459,VALID,349,VALID,1.52344,
2009-06-25, 01:03:04,VALID,1010.96,VALID,0,VALID,92.3555,VALID,0,VALID,23.2051,VALID,340,VALID,0.802734,
2009-06-25, 01:04:04,VALID,1010.98,VALID,0,VALID,92.3402,VALID,0,VALID,23.2264,VALID,325,VALID,0.675781,
2009-06-25, 01:05:04,VALID,1010.98,VALID,0,VALID,92.3479,VALID,0,VALID,23.2459,VALID,343,VALID,0.851953,
2009-06-25, 01:06:04,VALID,1010.95,VALID,0,VALID,92.3479,VALID,0,VALID,23.2459,VALID,333,VALID,0.952734,
2009-06-25, 01:07:04,VALID,1010.91,VALID,0,VALID,92.3555,VALID,0,VALID,23.2654,VALID,343,VALID,0.897266,
2009-06-25, 01:08:04,VALID,1010.91,VALID,0,VALID,92.3402,VALID,0,VALID,23.2654,VALID,314,VALID,0.541797,
2009-06-25, 01:09:04,VALID,1010.91,VALID,0,VALID,92.3326,VALID,0,VALID,23.2654,VALID,6,VALID,0.994141,
2009-06-25, 01:10:04,VALID,1010.88,VALID,0,VALID,92.3326,VALID,0,VALID,23.2654,VALID,344,VALID,1.0207,
2009-06-25, 01:11:04,VALID,1010.87,VALID,0,VALID,92.3326,VALID,0,VALID,23.2654,VALID,318,VALID,1.07852,
2009-06-25, 01:12:04,VALID,1010.84,VALID,0,VALID,92.3479,VALID,0,VALID,23.3043,VALID,306,VALID,0.417969,
2009-06-25, 01:13:04,VALID,1010.81,VALID,0,VALID,92.3479,VALID,0,VALID,23.3043,VALID,325,VALID,1.23828,
2009-06-25, 01:14:04,VALID,1010.78,VALID,0,VALID,92.3402,VALID,0,VALID,23.2831,VALID,317,VALID,0.424219,
2009-06-25, 01:15:04,VALID,1010.76,VALID,0,VALID,92.3402,VALID,0,VALID,23.3043,VALID,13,VALID,0.530469,
2009-06-25, 01:16:04,VALID,1010.73,VALID,0,VALID,92.3479,VALID,0,VALID,23.3043,VALID,348,VALID,0.671094,
2009-06-25, 01:17:04,VALID,1010.7,VALID,0,VALID,92.3479,VALID,0,VALID,23.2848,VALID,262,VALID,0.261719,
2009-06-25, 01:18:04,VALID,1010.67,VALID,0,VALID,92.3555,VALID,0,VALID,23.2848,VALID,1,VALID,0.761328,
2009-06-25, 01:19:04,VALID,1010.68,VALID,0,VALID,92.3555,VALID,0,VALID,23.3043,VALID,333,VALID,1.27344,
2009-06-25, 01:20:04,VALID,1010.66,VALID,0,VALID,92.3479,VALID,0,VALID,23.2848,VALID,346,VALID,1.18086,
2009-06-25, 01:21:04,VALID,1010.65,VALID,0,VALID,92.3479,VALID,0,VALID,23.3043,VALID,335,VALID,0.317578,
2009-06-25, 01:22:04,VALID,1010.58,VALID,0,VALID,92.325,VALID,0,VALID,23.3238,VALID,333,VALID,0.694922,
2009-06-25, 01:23:04,VALID,1010.57,VALID,0,VALID,92.3402,VALID,0,VALID,23.3043,VALID,6,VALID,0.807031,
2009-06-25, 01:24:04,VALID,1010.56,VALID,0,VALID,92.3479,VALID,0,VALID,23.3043,VALID,334,VALID,0.918359,
2009-06-25, 01:25:04,VALID,1010.53,VALID,0,VALID,92.325,VALID,0,VALID,23.3238,VALID,334,VALID,0.819531,
2009-06-25, 01:26:04,VALID,1010.51,VALID,0,VALID,92.386,VALID,0,VALID,23.3238,VALID,331,VALID,1.35469,
2009-06-25, 01:27:04,VALID,1010.46,VALID,0,VALID,92.3479,VALID,0,VALID,23.3043,VALID,333,VALID,1.33164,
2009-06-25, 01:28:04,VALID,1010.43,VALID,0,VALID,92.3479,VALID,0,VALID,23.2831,VALID,323,VALID,1.54375,
2009-06-25, 01:29:04,VALID,1010.48,VALID,0,VALID,92.3479,VALID,0,VALID,23.2831,VALID,1,VALID,0.711719,
2009-06-25, 01:30:04,VALID,1010.43,VALID,0,VALID,92.3479,VALID,0,VALID,23.3043,VALID,319,VALID,1.17969,
2009-06-25, 01:31:04,VALID,1010.42,VALID,0,VALID,92.3479,VALID,0,VALID,23.3043,VALID,327,VALID,1.44531,
2009-06-25, 01:32:04,VALID,1010.44,VALID,0,VALID,92.3479,VALID,0,VALID,23.3043,VALID,313,VALID,1.99414,
2009-06-25, 01:33:04,VALID,1010.45,VALID,0,VALID,92.3555,VALID,0,VALID,23.3043,VALID,291,VALID,0.716016,
2009-06-25, 01:34:04,VALID,1010.45,VALID,0,VALID,92.3555,VALID,0,VALID,23.3238,VALID,315,VALID,0.525,
2009-06-25, 01:35:04,VALID,1010.43,VALID,0,VALID,92.3631,VALID,0,VALID,23.3026,VALID,323,VALID,0.859375,
2009-06-25, 01:36:04,VALID,1010.44,VALID,0,VALID,92.3555,VALID,0,VALID,23.3026,VALID,323,VALID,1.10508,
2009-06-25, 01:37:04,VALID,1010.41,VALID,0,VALID,92.3555,VALID,0,VALID,23.3238,VALID,311,VALID,1.05977,
2009-06-25, 01:38:04,VALID,1010.4,VALID,0,VALID,92.3402,VALID,0,VALID,23.3238,VALID,280,VALID,0.796484,
2009-06-25, 01:39:04,VALID,1010.4,VALID,0,VALID,92.3402,VALID,0,VALID,23.3433,VALID,328,VALID,1.02461,
2009-06-25, 01:40:04,VALID,1010.4,VALID,0,VALID,92.325,VALID,0,VALID,23.3433,VALID,318,VALID,1.42227,
2009-06-25, 01:41:04,VALID,1010.41,VALID,0,VALID,92.3479,VALID,0,VALID,23.3433,VALID,311,VALID,1.26992,
2009-06-25, 01:42:04,VALID,1010.39,VALID,0,VALID,92.3479,VALID,0,VALID,23.3433,VALID,316,VALID,1.1082,
2009-06-25, 01:43:04,VALID,1010.4,VALID,0,VALID,92.3479,VALID,0,VALID,23.3238,VALID,339,VALID,2.00078,
2009-06-25, 01:44:04,VALID,1010.41,VALID,0,VALID,92.3555,VALID,0,VALID,23.3026,VALID,331,VALID,0.669141,
2009-06-25, 01:45:04,VALID,1010.43,VALID,0,VALID,92.3555,VALID,0,VALID,23.3008,VALID,301,VALID,1.00859,
2009-06-25, 01:46:04,VALID,1010.43,VALID,0,VALID,92.3631,VALID,0.105969,VALID,23.322,VALID,334,VALID,0.708203,
2009-06-25, 01:47:04,VALID,1010.44,VALID,0,VALID,92.3555,VALID,0.105969,VALID,23.3026,VALID,289,VALID,1.25977,
2009-06-25, 01:48:04,VALID,1010.42,VALID,0,VALID,92.3631,VALID,0.105969,VALID,23.3026,VALID,336,VALID,2.06758,
2009-06-25, 01:49:04,VALID,1010.4,VALID,0,VALID,92.3631,VALID,0,VALID,23.2831,VALID,340,VALID,2.18672,
2009-06-25, 01:50:04,VALID,1010.43,VALID,0,VALID,92.3631,VALID,0,VALID,23.2831,VALID,316,VALID,1.1293,
2009-06-25, 01:51:04,VALID,1010.4,VALID,0,VALID,92.3555,VALID,0.105969,VALID,23.2831,VALID,307,VALID,1.22266,
2009-06-25, 01:52:04,VALID,1010.38,VALID,0,VALID,92.3555,VALID,0,VALID,23.2423,VALID,350,VALID,1.56094,
2009-06-25, 01:53:04,VALID,1010.37,VALID,0,VALID,92.3708,VALID,0,VALID,23.2441,VALID,19,VALID,1.33398,
2009-06-25, 01:54:04,VALID,1010.37,VALID,0,VALID,92.386,VALID,0,VALID,23.2441,VALID,320,VALID,1.73125,
2009-06-25, 01:55:04,VALID,1010.37,VALID,0,VALID,92.3784,VALID,0.105969,VALID,23.2246,VALID,305,VALID,1.86445,
2009-06-25, 01:56:04,VALID,1010.37,VALID,0,VALID,92.3784,VALID,0.105969,VALID,23.2441,VALID,328,VALID,0.828516,
2009-06-25, 01:57:04,VALID,1010.41,VALID,0,VALID,92.386,VALID,0.105969,VALID,23.2034,VALID,334,VALID,0.803516,
2009-06-25, 01:58:04,VALID,1010.39,VALID,0,VALID,92.3936,VALID,0.105969,VALID,23.2051,VALID,288,VALID,0.660937,
2009-06-25, 01:59:04,VALID,1010.39,VALID,0,VALID,92.4089,VALID,0,VALID,23.1644,VALID,302,VALID,1.1875,
2009-06-25, 02:00:04,VALID,1010.41,VALID,0,VALID,92.3936,VALID,0,VALID,23.1662,VALID,324,VALID,1.35195,
2009-06-25, 02:01:04,VALID,1010.39,VALID,0,VALID,92.4089,VALID,0,VALID,23.1662,VALID,318,VALID,1.44922,
2009-06-25, 02:02:04,VALID,1010.38,VALID,0,VALID,92.3936,VALID,0,VALID,23.1467,VALID,291,VALID,1.33516,
2009-06-25, 02:03:04,VALID,1010.41,VALID,0,VALID,92.4241,VALID,0,VALID,23.1467,VALID,298,VALID,1.15156,
2009-06-25, 02:04:04,VALID,1010.42,VALID,0,VALID,92.4089,VALID,0,VALID,23.1077,VALID,327,VALID,1.40195,
2009-06-25, 02:05:04,VALID,1010.4,VALID,0,VALID,92.4394,VALID,0,VALID,23.0883,VALID,293,VALID,1.68906,
2009-06-25, 02:06:04,VALID,1010.41,VALID,0,VALID,92.4318,VALID,0,VALID,23.0688,VALID,319,VALID,1.83203,
2009-06-25, 02:07:04,VALID,1010.45,VALID,0,VALID,92.4089,VALID,0.105969,VALID,23.0883,VALID,326,VALID,0.7625,
2009-06-25, 02:08:04,VALID,1010.47,VALID,0,VALID,92.4318,VALID,0,VALID,23.09,VALID,312,VALID,1.62461,
2009-06-25, 02:09:04,VALID,1010.5,VALID,0,VALID,92.4089,VALID,0,VALID,23.0493,VALID,321,VALID,1.66875,
2009-06-25, 02:10:04,VALID,1010.52,VALID,0,VALID,92.4318,VALID,0.105969,VALID,23.0281,VALID,304,VALID,1.36563,
2009-06-25, 02:11:04,VALID,1010.51,VALID,0,VALID,92.4165,VALID,0.105969,VALID,23.0086,VALID,319,VALID,0.73125,
2009-06-25, 02:12:04,VALID,1010.53,VALID,0,VALID,92.4318,VALID,0.105969,VALID,23.0298,VALID,336,VALID,0.851172,
2009-06-25, 02:13:04,VALID,1010.58,VALID,0,VALID,92.4241,VALID,0.105969,VALID,23.0298,VALID,316,VALID,2.0207,
2009-06-25, 02:14:04,VALID,1010.55,VALID,0,VALID,92.4241,VALID,0,VALID,23.0121,VALID,302,VALID,1.03125,
2009-06-25, 02:15:04,VALID,1010.58,VALID,0,VALID,92.4241,VALID,0,VALID,22.9926,VALID,327,VALID,1.475,
2009-06-25, 02:16:04,VALID,1010.58,VALID,0,VALID,92.4165,VALID,0,VALID,22.9731,VALID,306,VALID,0.796094,
2009-06-25, 02:17:04,VALID,1010.56,VALID,0,VALID,92.4165,VALID,0,VALID,22.9731,VALID,344,VALID,1.60234,
2009-06-25, 02:18:04,VALID,1010.59,VALID,0,VALID,92.4318,VALID,0,VALID,22.9536,VALID,11,VALID,1.59141,
2009-06-25, 02:19:04,VALID,1010.56,VALID,0,VALID,92.4394,VALID,0,VALID,22.9943,VALID,339,VALID,1.61953,
2009-06-25, 02:20:04,VALID,1010.59,VALID,0,VALID,92.4394,VALID,0,VALID,22.9536,VALID,313,VALID,0.464453,
2009-06-25, 02:21:04,VALID,1010.6,VALID,0,VALID,92.4165,VALID,0,VALID,22.9536,VALID,11,VALID,0.200781,
2009-06-25, 02:22:04,VALID,1010.57,VALID,0,VALID,92.4241,VALID,0,VALID,22.9536,VALID,325,VALID,1.08945,
2009-06-25, 02:23:04,VALID,1010.6,VALID,0,VALID,92.4318,VALID,0,VALID,22.9749,VALID,324,VALID,1.64297,
2009-06-25, 02:24:04,VALID,1010.6,VALID,0,VALID,92.4165,VALID,0,VALID,22.9536,VALID,273,VALID,0.569141,
2009-06-25, 02:25:04,VALID,1010.63,VALID,0,VALID,92.4241,VALID,0,VALID,22.9536,VALID,314,VALID,0.854297,
2009-06-25, 02:26:04,VALID,1010.63,VALID,0,VALID,92.3936,VALID,0,VALID,22.9926,VALID,333,VALID,0.205859,
2009-06-25, 02:27:04,VALID,1010.63,VALID,0,VALID,92.4013,VALID,0,VALID,22.9749,VALID,355,VALID,0.750781,
2009-06-25, 02:28:04,VALID,1010.61,VALID,0,VALID,92.4165,VALID,0,VALID,22.9536,VALID,295,VALID,0.78125,
2009-06-25, 02:29:04,VALID,1010.58,VALID,0,VALID,92.4013,VALID,0,VALID,22.9536,VALID,42,VALID,0.195703,
2009-06-25, 02:30:04,VALID,1010.6,VALID,0,VALID,92.4089,VALID,0,VALID,22.9342,VALID,306,VALID,1.54219,
2009-06-25, 02:31:04,VALID,1010.55,VALID,0,VALID,92.4394,VALID,0,VALID,22.9342,VALID,337,VALID,1.98008,
2009-06-25, 02:32:04,VALID,1010.57,VALID,0,VALID,92.4318,VALID,0,VALID,22.9554,VALID,353,VALID,1.01367,
2009-06-25, 02:33:04,VALID,1010.54,VALID,0,VALID,92.4318,VALID,0,VALID,22.9342,VALID,338,VALID,1.875,
2009-06-25, 02:34:04,VALID,1010.58,VALID,0,VALID,92.4241,VALID,0,VALID,22.9147,VALID,305,VALID,1.03437,
2009-06-25, 02:35:04,VALID,1010.56,VALID,0,VALID,92.4241,VALID,0,VALID,22.9554,VALID,300,VALID,1.04102,
2009-06-25, 02:36:04,VALID,1010.61,VALID,0,VALID,92.4241,VALID,0,VALID,22.9147,VALID,1,VALID,1.54414,
2009-06-25, 02:37:04,VALID,1010.64,VALID,0,VALID,92.4241,VALID,0,VALID,22.9342,VALID,321,VALID,1.07656,
2009-06-25, 02:38:04,VALID,1010.62,VALID,0,VALID,92.4241,VALID,0,VALID,22.9342,VALID,317,VALID,0.807422,
2009-06-25, 02:39:04,VALID,1010.62,VALID,0,VALID,92.4165,VALID,0,VALID,22.9342,VALID,339,VALID,1.6957,
2009-06-25, 02:40:04,VALID,1010.64,VALID,0,VALID,92.4241,VALID,0,VALID,22.9342,VALID,29,VALID,0.398828,
2009-06-25, 02:41:04,VALID,1010.65,VALID,0,VALID,92.4013,VALID,0,VALID,22.9536,VALID,298,VALID,1.46563,
2009-06-25, 02:42:04,VALID,1010.65,VALID,0,VALID,92.4241,VALID,0,VALID,22.9536,VALID,321,VALID,1.65078,
2009-06-25, 02:43:04,VALID,1010.63,VALID,0,VALID,92.4241,VALID,0,VALID,22.9342,VALID,308,VALID,1.11289,
2009-06-25, 02:44:04,VALID,1010.65,VALID,0,VALID,92.4165,VALID,0,VALID,22.9749,VALID,312,VALID,1.8832,
2009-06-25, 02:45:04,VALID,1010.65,VALID,0,VALID,92.4165,VALID,0.105969,VALID,22.9324,VALID,306,VALID,1.68125,
2009-06-25, 02:46:04,VALID,1010.65,VALID,0,VALID,92.4089,VALID,0.105969,VALID,22.9519,VALID,339,VALID,1.30352,
2009-06-25, 02:47:04,VALID,1010.66,VALID,0,VALID,92.4318,VALID,0.105969,VALID,22.9324,VALID,292,VALID,1.1625,
2009-06-25, 02:48:04,VALID,1010.65,VALID,0,VALID,92.447,VALID,0.105969,VALID,22.9324,VALID,337,VALID,1.24609,
2009-06-25, 02:49:04,VALID,1010.68,VALID,0,VALID,92.4394,VALID,0.105969,VALID,22.9324,VALID,303,VALID,0.894922,
2009-06-25, 02:50:04,VALID,1010.67,VALID,0,VALID,92.4165,VALID,0,VALID,22.9129,VALID,307,VALID,1.84805,
2009-06-25, 02:51:04,VALID,1010.66,VALID,0,VALID,92.4318,VALID,0,VALID,22.9342,VALID,331,VALID,2.02305,
2009-06-25, 02:52:04,VALID,1010.69,VALID,0,VALID,92.4241,VALID,0.105969,VALID,22.9129,VALID,310,VALID,1.13086,
2009-06-25, 02:53:04,VALID,1010.67,VALID,0,VALID,92.4165,VALID,0,VALID,22.9147,VALID,299,VALID,1.34727,
2009-06-25, 02:54:04,VALID,1010.67,VALID,0,VALID,92.4241,VALID,0.105969,VALID,22.9129,VALID,303,VALID,1.03867,
2009-06-25, 02:55:04,VALID,1010.68,VALID,0,VALID,92.4165,VALID,0,VALID,22.8935,VALID,310,VALID,0.921484,
2009-06-25, 02:56:04,VALID,1010.71,VALID,0,VALID,92.4318,VALID,0,VALID,22.8952,VALID,318,VALID,2.67773,
2009-06-25, 02:57:04,VALID,1010.69,VALID,0,VALID,92.4089,VALID,0.105969,VALID,22.874,VALID,324,VALID,2.0957,
2009-06-25, 02:58:04,VALID,1010.72,VALID,0,VALID,92.4165,VALID,0,VALID,22.8935,VALID,326,VALID,1.0418,
2009-06-25, 02:59:04,VALID,1010.7,VALID,0,VALID,92.3936,VALID,0,VALID,22.8935,VALID,321,VALID,0.915234,
2009-06-25, 03:00:04,VALID,1010.66,VALID,0,VALID,92.386,VALID,0,VALID,22.8952,VALID,307,VALID,0.736719,
2009-06-25, 03:01:04,VALID,1010.68,VALID,0,VALID,92.4089,VALID,0,VALID,22.8969,VALID,345,VALID,0.858203,
2009-06-25, 03:02:04,VALID,1010.65,VALID,0,VALID,92.3708,VALID,0,VALID,22.8757,VALID,301,VALID,1.87148,
2009-06-25, 03:03:04,VALID,1010.66,VALID,0,VALID,92.386,VALID,0,VALID,22.8368,VALID,1,VALID,2.6793,
2009-06-25, 03:04:04,VALID,1010.69,VALID,0,VALID,92.3784,VALID,0,VALID,22.8562,VALID,327,VALID,0.636719,
2009-06-25, 03:05:04,VALID,1010.69,VALID,0,VALID,92.3631,VALID,0,VALID,22.8757,VALID,260,VALID,0.566797,
2009-06-25, 03:06:04,VALID,1010.7,VALID,0,VALID,92.3555,VALID,0,VALID,22.8562,VALID,313,VALID,1.66445,
2009-06-25, 03:07:04,VALID,1010.7,VALID,0,VALID,92.3708,VALID,0,VALID,22.858,VALID,314,VALID,1.8793,
2009-06-25, 03:08:04,VALID,1010.72,VALID,0,VALID,92.3479,VALID,0,VALID,22.858,VALID,309,VALID,0.666406,
2009-06-25, 03:09:04,VALID,1010.7,VALID,0,VALID,92.3402,VALID,0,VALID,22.8368,VALID,337,VALID,1.15078,
2009-06-25, 03:10:04,VALID,1010.7,VALID,0,VALID,92.3555,VALID,0,VALID,22.8368,VALID,313,VALID,2.00195,
2009-06-25, 03:11:04,VALID,1010.69,VALID,0,VALID,92.325,VALID,0,VALID,22.8368,VALID,291,VALID,0.460547,
2009-06-25, 03:12:04,VALID,1010.66,VALID,0,VALID,92.325,VALID,0,VALID,22.8173,VALID,339,VALID,0.647266,
2009-06-25, 03:13:04,VALID,1010.68,VALID,0,VALID,92.3326,VALID,0,VALID,22.8368,VALID,300,VALID,0.382813,
2009-06-25, 03:14:04,VALID,1010.66,VALID,0,VALID,92.3326,VALID,0,VALID,22.7978,VALID,320,VALID,0.646875,
2009-06-25, 03:15:04,VALID,1010.64,VALID,0,VALID,92.3174,VALID,0,VALID,22.7961,VALID,322,VALID,2.63242,
2009-06-25, 03:16:04,VALID,1010.67,VALID,0,VALID,92.3021,VALID,0,VALID,22.7961,VALID,339,VALID,2.15117,
2009-06-25, 03:17:04,VALID,1010.69,VALID,0,VALID,92.2945,VALID,0,VALID,22.8173,VALID,335,VALID,1.60273,
2009-06-25, 03:18:04,VALID,1010.66,VALID,0,VALID,92.3097,VALID,0.105969,VALID,22.8155,VALID,302,VALID,0.809766,
2009-06-25, 03:19:04,VALID,1010.67,VALID,0,VALID,92.2792,VALID,0,VALID,22.8155,VALID,328,VALID,1.57344,
2009-06-25, 03:20:04,VALID,1010.69,VALID,0,VALID,92.2792,VALID,0,VALID,22.8155,VALID,347,VALID,0.554688,
2009-06-25, 03:21:04,VALID,1010.7,VALID,0,VALID,92.2716,VALID,0,VALID,22.7961,VALID,319,VALID,1.75898,
2009-06-25, 03:22:04,VALID,1010.68,VALID,0,VALID,92.2792,VALID,0,VALID,22.7766,VALID,353,VALID,1.77383,
2009-06-25, 03:23:04,VALID,1010.66,VALID,0,VALID,92.264,VALID,0,VALID,22.8173,VALID,324,VALID,0.910547,
2009-06-25, 03:24:04,VALID,1010.68,VALID,0,VALID,92.2411,VALID,0,VALID,22.7961,VALID,324,VALID,1.46914,
2009-06-25, 03:25:04,VALID,1010.7,VALID,0,VALID,92.264,VALID,0.105969,VALID,22.7766,VALID,338,VALID,3.31758,
2009-06-25, 03:26:04,VALID,1010.68,VALID,0,VALID,92.2259,VALID,0.105969,VALID,22.8155,VALID,309,VALID,1.58086,
2009-06-25, 03:27:04,VALID,1010.71,VALID,0,VALID,92.2182,VALID,0,VALID,22.7961,VALID,313,VALID,1.6332,
2009-06-25, 03:28:04,VALID,1010.73,VALID,0,VALID,92.2182,VALID,0,VALID,22.7961,VALID,301,VALID,1.14492,
2009-06-25, 03:29:04,VALID,1010.73,VALID,0,VALID,92.1954,VALID,0,VALID,22.7766,VALID,308,VALID,0.797656,
2009-06-25, 03:30:04,VALID,1010.72,VALID,0,VALID,92.2106,VALID,0,VALID,22.7783,VALID,3,VALID,0.581641,
2009-06-25, 03:31:04,VALID,1010.72,VALID,0,VALID,92.1877,VALID,0.105969,VALID,22.7766,VALID,328,VALID,0.909766,
2009-06-25, 03:32:04,VALID,1010.73,VALID,0,VALID,92.1801,VALID,0,VALID,22.7571,VALID,249,VALID,0.625781,
2009-06-25, 03:33:04,VALID,1010.72,VALID,0,VALID,92.1725,VALID,0,VALID,22.7588,VALID,317,VALID,1.05234,
2009-06-25, 03:34:04,VALID,1010.68,VALID,0,VALID,92.1649,VALID,0,VALID,22.7376,VALID,22,VALID,2.10039,
2009-06-25, 03:35:04,VALID,1010.75,VALID,0,VALID,92.1496,VALID,0.105969,VALID,22.7376,VALID,316,VALID,2.05117,
2009-06-25, 03:36:04,VALID,1010.67,VALID,0,VALID,92.1572,VALID,0,VALID,22.7588,VALID,300,VALID,1.81953,
2009-06-25, 03:37:04,VALID,1010.66,VALID,0,VALID,92.1344,VALID,0,VALID,22.7571,VALID,295,VALID,1.25195,
2009-06-25, 03:38:04,VALID,1010.68,VALID,0,VALID,92.1115,VALID,0.105969,VALID,22.7571,VALID,341,VALID,1.10273,
2009-06-25, 03:39:04,VALID,1010.63,VALID,0,VALID,92.1191,VALID,0.105969,VALID,22.7376,VALID,295,VALID,1.24805,
2009-06-25, 03:40:04,VALID,1010.65,VALID,0,VALID,92.081,VALID,0,VALID,22.7376,VALID,341,VALID,0.826563,
2009-06-25, 03:41:04,VALID,1010.68,VALID,0,VALID,92.0962,VALID,0.105969,VALID,22.7376,VALID,292,VALID,1.07109,
2009-06-25, 03:42:04,VALID,1010.65,VALID,0,VALID,92.0581,VALID,0,VALID,22.7182,VALID,350,VALID,1.81445,